CONNECTA IOT-6

导读

CONNECTA IOT-6是美国发射的一颗物联网卫星,于北京时间2025年1月14日发射升空。该卫星属于低轨物联网星座的组成部分,主要依托卫星通信优势,为全球范围内的物联网设备提供低功耗、广覆盖的连接服务,可支持远程监测、智能物流、环境监测等各类物联网应用场景,补充地面网络覆盖盲区,推动天地一体化物联网网络建设,目前已在轨稳定运行超一年。

基本信息
目录编号:
62709
目录名称:
CONNECTA IOT-6
国际标识:
2025-009DE
轨道中心:
EARTH
卫星名称:
CONNECTA IOT-6
卫星全名:
CONNECTA IOT-6
卫星状态:
在轨 (已飞行599 天)
发射日期:
2025-01-14 UTC
国别 :
土耳其 (TR)
星等 :
--
轨道信息
数据来源 国际轨道数据
星历时间: 2026-09-05T06:44:53+0800
11小时前
查看轨道信息
半长轴: 6962.422km
偏心率: 0.0001155
轨道倾角: 97.697°
近地点辐角 163.849°
升交点赤经 324.786°
平近点角 196.277°
近地点: 583.48km
远地点: 585.09km
周期: 96.361分钟
每日圈数: 14.943844
详细信息
使用方式:
暂无
2D轨道图
3D轨道图
轨道高度分析图
轨道倾角分析图
轨道综合分析图
查看轨道综合分析图
交会数据列表
事件ID 空间交会对象 最接近时刻(TCA) 交会距离 交会风险概率(CRP) 交会风险指数(CRI) 操作
CDM_260906-114906-270906-324422
PANDORE (63244)
2026-09-06T
11:49:11+0000
1.814 km
极远距离
3.755643E-6 低风险 0.46